Regional Weather Roundup
Issued by NWS Cleveland, OH

Home | Current Version | Previous Version | Graphics & Text | Print | Product List | Glossary On
Versions: 1 2 3 4 5 6 7 8 9 10 11 12 13 14 15 16 17 18 19 20 21 22 23 24 25 26 27 28 29 30 31 32 33 34 35 36 37 38 39 40 41 42 43 44 45 46 47 48 49 50
000
ASUS41 KCLE 201602
RWRCLE
OHIO REGIONAL WEATHER ROUNDUP
NATIONAL WEATHER SERVICE CLEVELAND, OH
1100 AM EST SAT DEC 20 2014

NOTE: "FAIR" INDICATES FEW OR NO CLOUDS BELOW 12,000 FEET WITH NO
SIGNIFICANT WEATHER AND/OR OBSTRUCTIONS TO VISIBILITY.

OHZ001>008-015>018-024>027-034-035-043-044-201700-
   NORTHWEST OHIO

CITY           SKY/WX    TMP DP  RH WIND       PRES   REMARKS
DEFIANCE       CLOUDY    30  23  75 CALM      30.30F
FINDLAY        CLOUDY    31  23  72 S5        30.29S WCI  26
TOLEDO EXPRESS CLOUDY    30  21  69 SE3       30.30S
TOLEDO EXEC    CLOUDY    31  20  63 CALM      30.32S
LIMA           CLOUDY    32  23  69 S6        30.28F WCI  26
$$

OHZ009>014-019>023-028>033-038-089-201700-
   NORTHEAST OHIO

CITY           SKY/WX    TMP DP  RH WIND       PRES   REMARKS
CLE-HOPKINS    CLOUDY    29  20  69 S6        30.33S WCI  23
CLE-LAKEFRONT  CLOUDY    31  21  66 S5        30.31R WCI  26
CUY CO. ARPT   CLOUDY    32  25  74 S8        30.30S WCI  25
LORAIN-ELYRIA  CLOUDY    29  21  72 SW7       30.31S WCI  22
ASHTABULA      CLOUDY    30  22  72 CALM      30.29S
AKRON-CANTON   CLOUDY    29  18  63 CALM      30.28S
WOOSTER        CLOUDY    28  20  71 NE3       30.29S
MANSFIELD      CLOUDY    28  21  75 S5        30.27S WCI  23
YOUNGSTOWN     CLOUDY    28  19  69 CALM      30.27S
$$

OHZ042-051>053-060>062-070>072-077>081-201700-
  SOUTHWEST OHIO

CITY           SKY/WX    TMP DP  RH WIND       PRES   REMARKS
CINC-COVINGTON CLOUDY    31  24  75 CALM      30.29R
CINC-LUNKEN    CLOUDY    31  26  82 CALM      30.33R
HAMILTON       CLOUDY    32  25  75 N3        30.32R
DAYTON         CLOUDY    31  22  69 CALM      30.30R
WRIGHT-PAT AFB CLOUDY    30  22  72 N1        30.29S
DAYTON GENERAL CLOUDY    30  23  75 NW5       30.28S WCI  25
WILMINGTON     CLOUDY    29  23  78 E3        30.27F
$$

OHZ036-037-039>041-045>050-054>059-063>069-073>076-082>088-201700-
  CENTRAL AND SOUTHEAST OHIO

CITY           SKY/WX    TMP DP  RH WIND       PRES   REMARKS
COLUMBUS       CLOUDY    30  22  72 CALM      30.28F
OSU AIRPORT    CLOUDY    30  23  75 N5        30.28F WCI  25
BOLTON FIELD   CLOUDY    30  25  80 CALM      30.29F
RICKENBACK AFB NOT AVBL
NEWARK         CLOUDY    31  23  72 E3        30.27F
MARION         CLOUDY    29  22  75 CALM      30.29S
LANCASTER      CLOUDY    35  24  64 CALM      30.29F
ZANESVILLE     CLOUDY    30  21  69 CALM      30.28F
NEW PHILLY     CLOUDY    31  20  63 N3        30.30S
$$



USA.gov is the U.S. government's official web portal to all federal, state and local government web resources and services.